Flag for United Kingdom Weather past 2 weeks in Bolton, England, United Kingdom

Now
54 °F

Scattered showers. Clear.


Feels Like: 53 °F
Forecast: 45 / 53 °F
Wind: 5 mph from Northeast

Location: Manchester Airport


UV Index: 0 (Low)

Visibility: N/A


Pressure: 30.07 "Hg

Humidity: 77%

Dew point: 46 °F

Location of BoltonLocation

Historic Weather in Bolton

°F

Bolton temperature yesterday

Maximum temperature yesterday: 59 °F (at 11:50 AM)
Minimum temperature yesterday: 48 °F (at 5:20 AM)
Average temperature yesterday: 53 °F

Past Weeks' High & Low Weather Summary

 TemperatureHumidityPressure
High66 °F (Apr 21, 2:20 PM)100% (Apr 18, 3:20 AM)30.45 "Hg (Apr 18, 3:20 AM)
Low34 °F (Apr 18, 4:20 AM)36% (Apr 18, 1:50 PM)29.71 "Hg (Apr 20, 6:50 PM)
Average49 °F74%30.08 "Hg
* Reported Apr 9 7:20 PM — Apr 24 7:50 PM, Bolton, Weather by CustomWeather, © 2014

Note: Actual official high and low records may vary slightly from our data, if they occured in-between our weather recording intervals... More about our weather records

Advertising

Historic Weather Conditions — Data for Previous 24 hours

 ConditionsComfort  
Time TempWeatherWind HumidityBarometerVisibility
7:50 PM
Apr 24
55 °FScattered showers. Scattered clouds.3 mph72%30.07 "HgN/A
7:20 PM57 °FPassing clouds.7 mph67%30.04 "HgN/A
6:50 PM57 °FPassing clouds.5 mph67%30.04 "HgN/A
6:20 PM57 °FPassing clouds.6 mph63%30.04 "HgN/A
5:50 PM59 °FPassing clouds.5 mph59%30.07 "HgN/A
5:20 PM59 °FScattered clouds.3 mph59%30.07 "HgN/A
4:50 PM59 °FScattered showers. Scattered clouds.No wind59%30.07 "HgN/A
4:20 PM59 °FScattered showers. Scattered clouds.2 mph63%30.07 "HgN/A
3:50 PM59 °FScattered showers. Scattered clouds.No wind63%30.07 "HgN/A
3:20 PM55 °FSprinkles. Passing clouds.3 mph77%30.07 "HgN/A
2:50 PM57 °FSprinkles. Scattered clouds.5 mph67%30.09 "HgN/A
2:20 PM59 °FScattered clouds.3 mph59%30.09 "HgN/A
1:50 PM59 °FScattered clouds.2 mph63%30.09 "HgN/A
1:20 PM57 °FBroken clouds.7 mph67%30.09 "HgN/A
12:50 PM57 °FScattered clouds.7 mph67%30.09 "HgN/A
12:20 PM57 °FBroken clouds.5 mph72%30.09 "HgN/A
11:50 AM57 °FPassing clouds.3 mph67%30.09 "HgN/A
11:20 AM55 °FScattered clouds.3 mph72%30.12 "HgN/A
10:50 AM55 °FScattered clouds.2 mph72%30.12 "HgN/A
10:20 AM55 °FPartly sunny.3 mph77%30.12 "HgN/A
9:50 AM54 °FPassing clouds.2 mph77%30.12 "HgN/A
9:20 AM52 °FPassing clouds.3 mph82%30.12 "HgN/A
8:50 AM52 °FSunny.3 mph82%30.12 "Hg10 mi
8:20 AM50 °FClear.3 mph88%30.12 "Hg6 mi
7:50 AM46 °FFog.5 mph100%30.09 "Hg6 mi
7:20 AM45 °FFog.5 mph100%30.09 "Hg6 mi
6:50 AM43 °FFog.3 mph93%30.09 "Hg6 mi
6:20 AM41 °FFog.5 mph93%30.09 "Hg6 mi
5:50 AM39 °FFog.5 mph100%30.09 "Hg6 mi
5:20 AM41 °FFog.2 mph100%30.09 "Hg6 mi
4:50 AM43 °FPassing clouds.2 mph100%30.07 "HgN/A
4:20 AM43 °FFog.6 mph100%30.07 "Hg2 mi
3:50 AM43 °FFog.6 mph100%30.07 "Hg2 mi
3:20 AM45 °FHaze.3 mph100%30.07 "Hg3 mi
2:50 AM46 °FPassing clouds.6 mph93%30.07 "HgN/A
2:20 AM46 °FLight rain. Passing clouds.5 mph93%30.07 "HgN/A
1:50 AM46 °FPassing clouds.6 mph93%30.07 "Hg6 mi
1:20 AM48 °FPassing clouds.3 mph94%30.07 "HgN/A
12:50 AM50 °FLight rain. Passing clouds.No wind88%30.07 "HgN/A
12:20 AM50 °FLight rain. Passing clouds.5 mph88%30.07 "HgN/A
11:20 PM
Apr 23
50 °FPassing clouds.6 mph88%30.07 "HgN/A
10:50 PM48 °FPassing clouds.5 mph94%30.07 "HgN/A
10:20 PM50 °FLight rain. Passing clouds.3 mph88%30.07 "HgN/A
9:50 PM50 °FLight rain. Partly cloudy.3 mph88%30.07 "HgN/A
9:20 PM50 °FLight rain. Partly sunny.No wind94%30.04 "HgN/A
8:50 PM50 °FLight rain. Broken clouds.3 mph88%30.04 "HgN/A
8:20 PM50 °FLight rain. Broken clouds.7 mph94%30.04 "HgN/A
Weather by CustomWeather, © 2014

See weather overview